VIASAT-1

Last updated on Wed Jul 09 2025 00:02:44 GMT+0000 (Coordinated Universal Time)

1 37843U 11059A 25189.47055054 -.00000007 00000+0 00000+0 0 9992 2 37843 0.0249 28.6667 0002728 80.2669 232.0133 1.00269163 43871
UTC large
Height (km)
Speed (km/s)
/
Latitude / Longitude
Inclination (degrees)
Orbital Period (minutes)
Azimuth
Elevation
Range (km)
Doppler Factor

Next 0 passes for location: London (51.5072 / 0.1276)

Sorry there are no passes over London.